| time (UTC) | temp C | wind direction | speed KPH | gust KPH | rain 1hr cm | rain 24hr cm | rain mn cm | humidity % | barometer mb |
| 20260507073341 | 17 | 130 | 9.7 | 0.0 | 0.00 | 0.00 | 0.00 | 64 | 1016.0 |
| 20260507071842 | 17 | 100 | 12.9 | 0.0 | 0.00 | 0.00 | 0.00 | 64 | 1016.0 |
| 20260507070341 | 17 | 100 | 12.9 | 0.0 | 0.00 | 0.00 | 0.00 | 64 | 1016.0 |
| 20260507064841 | 16 | 110 | 16.1 | 0.0 | 0.00 | 0.00 | 0.00 | 59 | 1016.0 |
| 20260507063341 | 16 | 110 | 16.1 | 0.0 | 0.00 | 0.00 | 0.00 | 59 | 1016.0 |
| 20260507061851 | 16 | 100 | 17.7 | 0.0 | 0.00 | 0.00 | 0.00 | 63 | 1016.0 |
| 20260507060341 | 16 | 100 | 17.7 | 0.0 | 0.00 | 0.00 | 0.00 | 63 | 1016.0 |
| 20260507054841 | 13 | 110 | 14.5 | 0.0 | 0.00 | 0.00 | 0.00 | 67 | 1015.0 |
| 20260507053349 | 13 | 110 | 14.5 | 0.0 | 0.00 | 0.00 | 0.00 | 67 | 1015.0 |
| 20260507051842 | 13 | 90 | 11.3 | 0.0 | 0.00 | 0.00 | 0.00 | 67 | 1016.0 |
| 20260507050341 | 13 | 90 | 11.3 | 0.0 | 0.00 | 0.00 | 0.00 | 67 | 1016.0 |
| 20260507044838 | 12 | 90 | 16.1 | 0.0 | 0.00 | 0.00 | 0.00 | 72 | 1015.0 |
| 20260507043341 | 12 | 90 | 16.1 | 0.0 | 0.00 | 0.00 | 0.00 | 72 | 1015.0 |
| 20260507041841 | 10 | 80 | 8.0 | 0.0 | 0.00 | 0.00 | 0.00 | 94 | 1015.0 |
| 20260507040341 | 10 | 80 | 8.0 | 0.0 | 0.00 | 0.00 | 0.00 | 94 | 1015.0 |
| 20260507034838 | 11 | 90 | 12.9 | 0.0 | 0.00 | 0.00 | 0.00 | 82 | 1014.0 |
| 20260507033341 | 11 | 90 | 12.9 | 0.0 | 0.00 | 0.00 | 0.00 | 82 | 1014.0 |
| 20260507031841 | 11 | 90 | 14.5 | 0.0 | 0.00 | 0.00 | 0.00 | 88 | 1014.0 |
| 20260507030342 | 11 | 90 | 14.5 | 0.0 | 0.00 | 0.00 | 0.00 | 88 | 1014.0 |
| 20260507024838 | 12 | 90 | 14.5 | 0.0 | 0.00 | 0.00 | 0.00 | 82 | 1015.0 |
| 20260507023341 | 12 | 90 | 14.5 | 0.0 | 0.00 | 0.00 | 0.00 | 82 | 1015.0 |
| 20260507021841 | 12 | 90 | 16.1 | 0.0 | 0.00 | 0.00 | 0.00 | 82 | 1014.0 |
| 20260507020341 | 12 | 90 | 16.1 | 0.0 | 0.00 | 0.00 | 0.00 | 82 | 1014.0 |
| 20260507014841 | 12 | 80 | 12.9 | 0.0 | 0.00 | 0.00 | 0.00 | 88 | 1014.0 |
| 20260507013341 | 12 | 80 | 12.9 | 0.0 | 0.00 | 0.00 | 0.00 | 88 | 1014.0 |
| 20260507011841 | 12 | 70 | 16.1 | 0.0 | 0.00 | 0.00 | 0.00 | 82 | 1014.0 |
| 20260507010341 | 12 | 70 | 16.1 | 0.0 | 0.00 | 0.00 | 0.00 | 82 | 1014.0 |
| 20260507004841 | 12 | 70 | 16.1 | 0.0 | 0.00 | 0.00 | 0.00 | 82 | 1014.0 |
| 20260507003342 | 12 | 70 | 16.1 | 0.0 | 0.00 | 0.00 | 0.00 | 82 | 1014.0 |
| 20260507001841 | 12 | 70 | 20.9 | 0.0 | 0.00 | 0.00 | 0.00 | 82 | 1014.0 |
| 20260507000343 | 12 | 70 | 20.9 | 0.0 | 0.00 | 0.00 | 0.00 | 82 | 1014.0 |
| 20260506234841 | 12 | 70 | 16.1 | 0.0 | 0.00 | 0.00 | 0.00 | 88 | 1014.0 |
| 20260506233341 | 12 | 70 | 16.1 | 0.0 | 0.00 | 0.00 | 0.00 | 88 | 1014.0 |
| 20260506231842 | 12 | 70 | 16.1 | 0.0 | 0.00 | 0.00 | 0.00 | 88 | 1014.0 |
| 20260506230341 | 12 | 70 | 16.1 | 0.0 | 0.00 | 0.00 | 0.00 | 88 | 1014.0 |
| 20260506224838 | 12 | 90 | 16.1 | 0.0 | 0.00 | 0.00 | 0.00 | 88 | 1014.0 |
| 20260506223341 | 12 | 90 | 16.1 | 0.0 | 0.00 | 0.00 | 0.00 | 88 | 1014.0 |
| 20260506221841 | 12 | 100 | 12.9 | 0.0 | 0.00 | 0.00 | 0.00 | 88 | 1014.0 |
| 20260506220340 | 12 | 100 | 12.9 | 0.0 | 0.00 | 0.00 | 0.00 | 88 | 1014.0 |
| 20260506214857 | 13 | 100 | 11.3 | 0.0 | 0.00 | 0.00 | 0.00 | 77 | 1014.0 |
| 20260506213341 | 13 | 100 | 11.3 | 0.0 | 0.00 | 0.00 | 0.00 | 77 | 1014.0 |
| 20260506211838 | 16 | 120 | 11.3 | 0.0 | 0.00 | 0.00 | 0.00 | 72 | 1014.0 |
| 20260506210341 | 16 | 120 | 11.3 | 0.0 | 0.00 | 0.00 | 0.00 | 72 | 1014.0 |
| 20260506204842 | 16 | 120 | 14.5 | 0.0 | 0.00 | 0.00 | 0.00 | 72 | 1014.0 |
| 20260506203341 | 16 | 120 | 14.5 | 0.0 | 0.00 | 0.00 | 0.00 | 72 | 1014.0 |
| 20260506201838 | 17 | 120 | 16.1 | 0.0 | 0.00 | 0.00 | 0.00 | 68 | 1014.0 |
| 20260506200341 | 17 | 120 | 16.1 | 0.0 | 0.00 | 0.00 | 0.00 | 68 | 1014.0 |
| 20260506194900 | 16 | 110 | 11.3 | 0.0 | 0.00 | 0.00 | 0.00 | 77 | 1013.0 |
| 20260506193405 | 16 | 110 | 11.3 | 0.0 | 0.00 | 0.00 | 0.00 | 77 | 1013.0 |
| 20260506191842 | 16 | 120 | 12.9 | 0.0 | 0.00 | 0.00 | 0.00 | 72 | 1013.0 |
| 20260506190341 | 16 | 120 | 12.9 | 0.0 | 0.00 | 0.00 | 0.00 | 72 | 1013.0 |
| 20260506184847 | 17 | 120 | 11.3 | 0.0 | 0.00 | 0.00 | 0.00 | 73 | 1013.0 |
| 20260506183341 | 17 | 120 | 11.3 | 0.0 | 0.00 | 0.00 | 0.00 | 73 | 1013.0 |
| 20260506181841 | 17 | 110 | 9.7 | 0.0 | 0.00 | 0.00 | 0.00 | 68 | 1013.0 |
| 20260506180342 | 17 | 110 | 9.7 | 0.0 | 0.00 | 0.00 | 0.00 | 68 | 1013.0 |
| 20260506174842 | 20 | 120 | 8.0 | 0.0 | 0.00 | 0.00 | 0.00 | 64 | 1012.0 |
| 20260506173341 | 20 | 120 | 8.0 | 0.0 | 0.00 | 0.00 | 0.00 | 64 | 1012.0 |
| 20260506171842 | 22 | 130 | 9.7 | 0.0 | 0.00 | 0.00 | 0.00 | 57 | 1012.0 |
| 20260506170341 | 22 | 130 | 9.7 | 0.0 | 0.00 | 0.00 | 0.00 | 57 | 1012.0 |
| 20260506164841 | 23 | 130 | 9.7 | 0.0 | 0.00 | 0.00 | 0.00 | 50 | 1012.0 |
| 20260506163341 | 23 | 130 | 9.7 | 0.0 | 0.00 | 0.00 | 0.00 | 50 | 1012.0 |
| 20260506161842 | 25 | 130 | 11.3 | 0.0 | 0.00 | 0.00 | 0.00 | 47 | 1012.0 |
| 20260506160341 | 25 | 130 | 11.3 | 0.0 | 0.00 | 0.00 | 0.00 | 47 | 1012.0 |
| 20260506154842 | 25 | 130 | 9.7 | 0.0 | 0.00 | 0.00 | 0.00 | 47 | 1012.0 |
| 20260506153341 | 25 | 130 | 9.7 | 0.0 | 0.00 | 0.00 | 0.00 | 47 | 1012.0 |
| 20260506151841 | 25 | 110 | 11.3 | 0.0 | 0.00 | 0.00 | 0.00 | 44 | 1012.0 |
| 20260506150347 | 25 | 110 | 11.3 | 0.0 | 0.00 | 0.00 | 0.00 | 44 | 1012.0 |
| 20260506144841 | 26 | 130 | 11.3 | 0.0 | 0.00 | 0.00 | 0.00 | 45 | 1012.0 |
| 20260506143353 | 26 | 130 | 11.3 | 0.0 | 0.00 | 0.00 | 0.00 | 45 | 1012.0 |
| 20260506141841 | 26 | 130 | 11.3 | 0.0 | 0.00 | 0.00 | 0.00 | 45 | 1013.0 |
| 20260506140501 | 26 | 130 | 11.3 | 0.0 | 0.00 | 0.00 | 0.00 | 45 | 1013.0 |
| 20260506134906 | 26 | 140 | 11.3 | 0.0 | 0.00 | 0.00 | 0.00 | 45 | 1013.0 |
| 20260506133341 | 26 | 140 | 11.3 | 0.0 | 0.00 | 0.00 | 0.00 | 45 | 1013.0 |
| 20260506131841 | 26 | 160 | 9.7 | 0.0 | 0.00 | 0.00 | 0.00 | 45 | 1013.0 |
| 20260506130350 | 26 | 160 | 9.7 | 0.0 | 0.00 | 0.00 | 0.00 | 45 | 1013.0 |
| 20260506124842 | 25 | 160 | 9.7 | 0.0 | 0.00 | 0.00 | 0.00 | 47 | 1013.0 |
| 20260506123341 | 25 | 160 | 9.7 | 0.0 | 0.00 | 0.00 | 0.00 | 47 | 1013.0 |
| 20260506121842 | 25 | 170 | 9.7 | 0.0 | 0.00 | 0.00 | 0.00 | 44 | 1014.0 |
| 20260506120341 | 25 | 170 | 9.7 | 0.0 | 0.00 | 0.00 | 0.00 | 44 | 1014.0 |
| 20260506114841 | 23 | 170 | 12.9 | 0.0 | 0.00 | 0.00 | 0.00 | 47 | 1014.0 |
| 20260506113342 | 23 | 170 | 12.9 | 0.0 | 0.00 | 0.00 | 0.00 | 47 | 1014.0 |
| 20260506111841 | 23 | 170 | 11.3 | 0.0 | 0.00 | 0.00 | 0.00 | 50 | 1014.0 |
| 20260506110341 | 23 | 170 | 11.3 | 0.0 | 0.00 | 0.00 | 0.00 | 50 | 1014.0 |
| 20260506104841 | 22 | 150 | 11.3 | 0.0 | 0.00 | 0.00 | 0.00 | 57 | 1014.0 |
| 20260506103341 | 22 | 150 | 11.3 | 0.0 | 0.00 | 0.00 | 0.00 | 57 | 1014.0 |
| 20260506101842 | 22 | 150 | 9.7 | 0.0 | 0.00 | 0.00 | 0.00 | 50 | 1015.0 |
| 20260506100341 | 22 | 150 | 9.7 | 0.0 | 0.00 | 0.00 | 0.00 | 50 | 1015.0 |
| 20260506094841 | 22 | 110 | 9.7 | 0.0 | 0.00 | 0.00 | 0.00 | 57 | 1015.0 |
| 20260506093341 | 22 | 110 | 9.7 | 0.0 | 0.00 | 0.00 | 0.00 | 57 | 1015.0 |
| 20260506091841 | 21 | 130 | 9.7 | 0.0 | 0.00 | 0.00 | 0.00 | 57 | 1015.0 |
| 20260506090341 | 21 | 130 | 9.7 | 0.0 | 0.00 | 0.00 | 0.00 | 57 | 1015.0 |
| 20260506084841 | 20 | 130 | 8.0 | 0.0 | 0.00 | 0.00 | 0.00 | 60 | 1015.0 |
| 20260506083341 | 20 | 130 | 8.0 | 0.0 | 0.00 | 0.00 | 0.00 | 60 | 1015.0 |
| 20260506081838 | 18 | 150 | 9.7 | 0.0 | 0.00 | 0.00 | 0.00 | 60 | 1015.0 |
| 20260506080341 | 18 | 150 | 9.7 | 0.0 | 0.00 | 0.00 | 0.00 | 60 | 1015.0 |